Location: ???????
(55.8930°N, 38.0586°E)
Time: 13:02:06
(UTC+00:00)

CZ-2D R/B - Pass Details

Date: 14 April 2024
Orbit: 791 x 842 km, 98.8° (Epoch: 27 May)

Event Time Altitude Azimuth Distance (km) Brightness Sun altitude
Rises 00:53:21 0° 13° (NNE) 3,338 6.2 -12.0°
Reaches altitude 10° 00:55:50 10° 6° (N) 2,410 5.2 -11.8°
Maximum altitude 01:00:39 36° 301° (WNW) 1,275 3.0 -11.2°
Enters shadow 01:04:43 14° 240° (WSW) 2,151 3.7 -10.8°
